Time,TemperatureF,DewpointF,PressureIn,WindDirection,WindDirectionDegrees,WindSpeedMPH,WindSpeedGustMPH,Humidity,HourlyPrecipIn,Conditions,Clouds,dailyrainin,SoftwareType,DateUTC
2013-02-14 00:00:00,25.0,19.1,30.19,NW,315,0.0,6.0,78,0.00,,,0.00,Weather View 32 v70,2013-02-14 07:00:00,
2013-02-14 00:05:00,25.0,19.4,30.18,NNE,22,4.0,6.0,79,0.00,,,0.00,Weather View 32 v70,2013-02-14 07:05:00,
2013-02-14 00:10:00,25.0,19.4,30.18,NNE,22,5.0,6.0,79,0.00,,,0.00,Weather View 32 v70,2013-02-14 07:10:00,
2013-02-14 00:15:00,25.0,19.1,30.18,NNE,22,3.0,6.0,78,0.00,,,0.00,Weather View 32 v70,2013-02-14 07:15:00,
2013-02-14 00:20:00,25.0,19.1,30.18,NNE,22,3.0,6.0,78,0.00,,,0.00,Weather View 32 v70,2013-02-14 07:20:00,
2013-02-14 00:25:00,25.0,19.1,30.19,NNE,22,3.0,6.0,78,0.00,,,0.00,Weather View 32 v70,2013-02-14 07:25:00,
2013-02-14 00:30:00,25.0,19.4,30.19,NNE,22,3.0,6.0,79,0.00,,,0.00,Weather View 32 v70,2013-02-14 07:30:00,
2013-02-14 00:35:00,24.0,18.4,30.19,NNE,22,2.0,6.0,79,0.00,,,0.00,Weather View 32 v70,2013-02-14 07:35:00,
2013-02-14 00:40:00,24.0,18.4,30.19,NNE,22,0.0,6.0,79,0.00,,,0.00,Weather View 32 v70,2013-02-14 07:40:00,
2013-02-14 00:45:00,24.0,18.7,30.19,SSW,202,4.0,6.0,80,0.00,,,0.00,Weather View 32 v70,2013-02-14 07:45:00,
2013-02-14 00:50:00,23.0,18.0,30.19,SSW,202,0.0,6.0,81,0.00,,,0.00,Weather View 32 v70,2013-02-14 07:50:00,
2013-02-14 00:55:00,23.0,18.9,30.19,SSW,202,0.0,6.0,84,0.00,,,0.00,Weather View 32 v70,2013-02-14 07:55:00,
2013-02-14 01:00:00,23.0,18.6,30.19,SSW,202,0.0,6.0,83,0.00,,,0.00,Weather View 32 v70,2013-02-14 08:00:00,
2013-02-14 01:05:00,23.0,18.6,30.18,SSW,202,0.0,6.0,83,0.00,,,0.00,Weather View 32 v70,2013-02-14 08:05:00,
2013-02-14 01:10:00,22.0,18.2,30.18,East,90,4.0,6.0,85,0.00,,,0.00,Weather View 32 v70,2013-02-14 08:10:00,
2013-02-14 01:15:00,22.0,18.2,30.19,East,90,4.0,6.0,85,0.00,,,0.00,Weather View 32 v70,2013-02-14 08:15:00,
2013-02-14 01:20:00,22.0,18.5,30.19,ENE,67,1.0,6.0,86,0.00,,,0.00,Weather View 32 v70,2013-02-14 08:20:00,
2013-02-14 01:25:00,22.0,17.9,30.19,ENE,67,3.0,6.0,84,0.00,,,0.00,Weather View 32 v70,2013-02-14 08:25:00,
2013-02-14 01:30:00,22.0,18.2,30.19,ENE,67,1.0,6.0,85,0.00,,,0.00,Weather View 32 v70,2013-02-14 08:30:00,
2013-02-14 01:35:00,22.0,18.2,30.19,ENE,67,5.0,6.0,85,0.00,,,0.00,Weather View 32 v70,2013-02-14 08:35:00,
2013-02-14 01:40:00,22.0,19.0,30.19,ENE,67,3.0,6.0,88,0.00,,,0.00,Weather View 32 v70,2013-02-14 08:40:00,
2013-02-14 01:45:00,22.0,19.0,30.19,ENE,67,0.0,6.0,88,0.00,,,0.00,Weather View 32 v70,2013-02-14 08:45:00,
2013-02-14 01:50:00,22.0,19.3,30.19,ENE,67,2.0,6.0,89,0.00,,,0.00,Weather View 32 v70,2013-02-14 08:50:00,
2013-02-14 01:55:00,22.0,19.3,30.19,ENE,67,2.0,6.0,89,0.00,,,0.00,Weather View 32 v70,2013-02-14 08:55:00,
2013-02-14 02:00:00,21.0,19.0,30.19,ENE,67,4.0,6.0,92,0.00,,,0.00,Weather View 32 v70,2013-02-14 09:00:00,
2013-02-14 02:05:00,21.0,18.8,30.18,ENE,67,1.0,6.0,91,0.00,,,0.00,Weather View 32 v70,2013-02-14 09:05:00,
2013-02-14 02:10:00,21.0,18.8,30.18,ENE,67,3.0,6.0,91,0.00,,,0.00,Weather View 32 v70,2013-02-14 09:10:00,
2013-02-14 02:15:00,21.0,19.0,30.18,ENE,67,4.0,6.0,92,0.00,,,0.00,Weather View 32 v70,2013-02-14 09:15:00,
2013-02-14 02:20:00,21.0,19.0,30.18,ENE,67,0.0,6.0,92,0.00,,,0.00,Weather View 32 v70,2013-02-14 09:20:00,
2013-02-14 02:25:00,21.0,19.5,30.18,ENE,67,3.0,6.0,94,0.00,,,0.00,Weather View 32 v70,2013-02-14 09:25:00,
2013-02-14 02:30:00,20.0,19.0,30.18,ENE,67,3.0,6.0,96,0.00,,,0.00,Weather View 32 v70,2013-02-14 09:30:00,
2013-02-14 02:35:00,20.0,18.8,30.19,ENE,67,4.0,6.0,95,0.00,,,0.00,Weather View 32 v70,2013-02-14 09:35:00,
2013-02-14 02:40:00,20.0,19.0,30.19,ENE,67,4.0,5.0,96,0.00,,,0.00,Weather View 32 v70,2013-02-14 09:40:00,
2013-02-14 02:45:00,20.0,19.0,30.19,ENE,67,3.0,5.0,96,0.00,,,0.00,Weather View 32 v70,2013-02-14 09:45:00,
2013-02-14 02:50:00,20.0,19.0,30.19,ENE,67,1.0,5.0,96,0.00,,,0.00,Weather View 32 v70,2013-02-14 09:50:00,
2013-02-14 02:55:00,20.0,19.3,30.18,ENE,67,1.0,5.0,97,0.00,,,0.00,Weather View 32 v70,2013-02-14 09:55:00,
2013-02-14 03:00:00,20.0,19.3,30.18,ENE,67,1.0,5.0,97,0.00,,,0.00,Weather View 32 v70,2013-02-14 10:00:00,
2013-02-14 03:05:00,19.0,19.0,30.19,ENE,67,2.0,5.0,100,0.00,,,0.00,Weather View 32 v70,2013-02-14 10:05:00,
2013-02-14 03:10:00,20.0,19.5,30.19,NE,45,4.0,6.0,98,0.00,,,0.00,Weather View 32 v70,2013-02-14 10:10:00,
2013-02-14 03:15:00,20.0,19.0,30.18,ENE,67,5.0,6.0,96,0.00,,,0.00,Weather View 32 v70,2013-02-14 10:15:00,
2013-02-14 03:20:00,20.0,19.0,30.18,ENE,67,2.0,6.0,96,0.00,,,0.00,Weather View 32 v70,2013-02-14 10:20:00,
2013-02-14 03:25:00,19.0,18.5,30.18,ENE,67,0.0,6.0,98,0.00,,,0.00,Weather View 32 v70,2013-02-14 10:25:00,
2013-02-14 03:30:00,19.0,18.5,30.18,ENE,67,0.0,6.0,98,0.00,,,0.00,Weather View 32 v70,2013-02-14 10:30:00,
2013-02-14 03:35:00,19.0,19.0,30.18,ENE,67,3.0,6.0,100,0.00,,,0.00,Weather View 32 v70,2013-02-14 10:35:00,
2013-02-14 03:40:00,19.0,19.0,30.18,ENE,67,0.0,6.0,100,0.00,,,0.00,Weather View 32 v70,2013-02-14 10:40:00,
2013-02-14 03:45:00,19.0,19.0,30.18,ENE,67,1.0,6.0,100,0.00,,,0.00,Weather View 32 v70,2013-02-14 10:45:00,
2013-02-14 03:50:00,19.0,19.0,30.18,ENE,67,0.0,6.0,100,0.00,,,0.00,Weather View 32 v70,2013-02-14 10:50:00,
2013-02-14 03:55:00,19.0,19.0,30.18,ENE,67,4.0,6.0,100,0.00,,,0.00,Weather View 32 v70,2013-02-14 10:55:00,
2013-02-14 04:00:00,19.0,18.8,30.18,ENE,67,7.0,8.0,99,0.00,,,0.00,Weather View 32 v70,2013-02-14 11:00:00,
2013-02-14 04:04:00,19.0,18.3,30.18,ENE,67,4.0,8.0,97,0.00,,,0.00,Weather View 32 v70,2013-02-14 11:04:00,
2013-02-14 04:09:00,20.0,19.0,30.18,NE,45,6.0,8.0,96,0.00,,,0.00,Weather View 32 v70,2013-02-14 11:09:00,
2013-02-14 04:14:00,20.0,18.8,30.18,NE,45,4.0,8.0,95,0.00,,,0.00,Weather View 32 v70,2013-02-14 11:14:00,
2013-02-14 04:19:00,20.0,18.8,30.18,NE,45,5.0,8.0,95,0.00,,,0.00,Weather View 32 v70,2013-02-14 11:19:00,
2013-02-14 04:24:00,20.0,18.8,30.18,ENE,67,4.0,8.0,95,0.00,,,0.00,Weather View 32 v70,2013-02-14 11:24:00,
2013-02-14 04:29:00,20.0,18.8,30.18,ENE,67,3.0,8.0,95,0.00,,,0.00,Weather View 32 v70,2013-02-14 11:29:00,
2013-02-14 04:34:00,20.0,18.8,30.18,ENE,67,3.0,8.0,95,0.00,,,0.00,Weather View 32 v70,2013-02-14 11:34:00,
2013-02-14 04:39:00,20.0,18.8,30.18,ENE,67,2.0,8.0,95,0.00,,,0.00,Weather View 32 v70,2013-02-14 11:39:00,
2013-02-14 04:44:00,20.0,19.0,30.18,ENE,67,2.0,8.0,96,0.00,,,0.00,Weather View 32 v70,2013-02-14 11:44:00,
2013-02-14 04:49:00,19.0,18.0,30.18,ENE,67,3.0,8.0,96,0.00,,,0.00,Weather View 32 v70,2013-02-14 11:49:00,
2013-02-14 04:54:00,19.0,17.8,30.18,ENE,67,3.0,8.0,95,0.00,,,0.00,Weather View 32 v70,2013-02-14 11:54:00,
2013-02-14 04:59:00,19.0,18.3,30.18,ENE,67,3.0,7.0,97,0.00,,,0.00,Weather View 32 v70,2013-02-14 11:59:00,
2013-02-14 05:04:00,19.0,18.3,30.18,ENE,67,0.0,7.0,97,0.00,,,0.00,Weather View 32 v70,2013-02-14 12:04:00,
2013-02-14 05:09:00,19.0,18.5,30.18,ENE,67,3.0,7.0,98,0.00,,,0.00,Weather View 32 v70,2013-02-14 12:09:00,
2013-02-14 05:14:00,19.0,18.5,30.19,ENE,67,3.0,7.0,98,0.00,,,0.00,Weather View 32 v70,2013-02-14 12:14:00,
2013-02-14 05:19:00,18.0,17.8,30.19,ENE,67,4.0,6.0,99,0.00,,,0.00,Weather View 32 v70,2013-02-14 12:19:00,
2013-02-14 05:24:00,18.0,17.8,30.19,East,90,4.0,6.0,99,0.00,,,0.00,Weather View 32 v70,2013-02-14 12:24:00,
2013-02-14 05:29:00,18.0,17.8,30.19,East,90,3.0,6.0,99,0.00,,,0.00,Weather View 32 v70,2013-02-14 12:29:00,
2013-02-14 05:34:00,18.0,17.8,30.19,East,90,1.0,6.0,99,0.00,,,0.00,Weather View 32 v70,2013-02-14 12:34:00,
2013-02-14 05:39:00,18.0,18.0,30.19,NNE,22,4.0,6.0,100,0.00,,,0.00,Weather View 32 v70,2013-02-14 12:39:00,
2013-02-14 05:44:00,18.0,18.0,30.19,NE,45,3.0,6.0,100,0.00,,,0.00,Weather View 32 v70,2013-02-14 12:44:00,
2013-02-14 05:49:00,18.0,18.0,30.19,NE,45,3.0,6.0,100,0.00,,,0.00,Weather View 32 v70,2013-02-14 12:49:00,
2013-02-14 05:54:00,18.0,18.0,30.19,ENE,67,4.0,6.0,100,0.00,,,0.00,Weather View 32 v70,2013-02-14 12:54:00,
2013-02-14 05:59:00,18.0,18.0,30.19,ENE,67,3.0,6.0,100,0.00,,,0.00,Weather View 32 v70,2013-02-14 12:59:00,
2013-02-14 06:04:00,18.0,18.0,30.19,ENE,67,0.0,6.0,100,0.00,,,0.00,Weather View 32 v70,2013-02-14 13:04:00,
2013-02-14 06:09:00,17.0,17.0,30.19,ENE,67,3.0,6.0,100,0.00,,,0.00,Weather View 32 v70,2013-02-14 13:09:00,
2013-02-14 06:14:00,17.0,17.0,30.20,ENE,67,1.0,6.0,100,0.00,,,0.00,Weather View 32 v70,2013-02-14 13:14:00,
2013-02-14 06:19:00,17.0,17.0,30.20,ENE,67,4.0,6.0,100,0.00,,,0.00,Weather View 32 v70,2013-02-14 13:19:00,
2013-02-14 06:24:00,17.0,17.0,30.20,ENE,67,4.0,6.0,100,0.00,,,0.00,Weather View 32 v70,2013-02-14 13:24:00,
2013-02-14 06:29:00,17.0,17.0,30.20,ENE,67,4.0,6.0,100,0.00,,,0.00,Weather View 32 v70,2013-02-14 13:29:00,
2013-02-14 06:34:00,17.0,17.0,30.20,ENE,67,4.0,6.0,100,0.00,,,0.00,Weather View 32 v70,2013-02-14 13:34:00,
2013-02-14 06:39:00,17.0,17.0,30.20,ENE,67,3.0,6.0,100,0.00,,,0.00,Weather View 32 v70,2013-02-14 13:39:00,
2013-02-14 06:44:00,17.0,17.0,30.20,ENE,67,2.0,5.0,100,0.00,,,0.00,Weather View 32 v70,2013-02-14 13:44:00,
2013-02-14 06:49:00,17.0,17.0,30.20,ENE,67,0.0,5.0,100,0.00,,,0.00,Weather View 32 v70,2013-02-14 13:49:00,
2013-02-14 06:54:00,16.0,16.0,30.20,ENE,67,1.0,5.0,100,0.00,,,0.00,Weather View 32 v70,2013-02-14 13:54:00,
2013-02-14 06:59:00,16.0,16.0,30.20,ENE,67,0.0,5.0,100,0.00,,,0.00,Weather View 32 v70,2013-02-14 13:59:00,
2013-02-14 07:04:00,17.0,17.0,30.21,ENE,67,0.0,5.0,100,0.00,,,0.00,Weather View 32 v70,2013-02-14 14:04:00,
2013-02-14 07:09:00,17.0,17.0,30.21,NE,45,6.0,6.0,100,0.00,,,0.00,Weather View 32 v70,2013-02-14 14:09:00,
2013-02-14 07:14:00,17.0,17.0,30.21,NE,45,3.0,6.0,100,0.00,,,0.00,Weather View 32 v70,2013-02-14 14:14:00,
2013-02-14 07:19:00,18.0,17.8,30.21,NE,45,3.0,6.0,99,0.00,,,0.00,Weather View 32 v70,2013-02-14 14:19:00,
2013-02-14 07:24:00,18.0,17.8,30.21,NE,45,0.0,6.0,99,0.00,,,0.00,Weather View 32 v70,2013-02-14 14:24:00,
2013-02-14 07:29:00,18.0,17.3,30.21,NE,45,0.0,6.0,97,0.00,,,0.00,Weather View 32 v70,2013-02-14 14:29:00,
2013-02-14 07:34:00,19.0,17.8,30.21,NE,45,0.0,6.0,95,0.00,,,0.00,Weather View 32 v70,2013-02-14 14:34:00,
2013-02-14 07:39:00,20.0,18.8,30.21,NE,45,0.0,6.0,95,0.00,,,0.00,Weather View 32 v70,2013-02-14 14:39:00,
2013-02-14 07:44:00,21.0,19.5,30.21,ENE,67,0.0,6.0,94,0.00,,,0.00,Weather View 32 v70,2013-02-14 14:44:00,
2013-02-14 07:49:00,21.0,19.5,30.21,ENE,67,1.0,6.0,94,0.00,,,0.00,Weather View 32 v70,2013-02-14 14:49:00,
2013-02-14 07:54:00,22.0,20.5,30.21,ENE,67,0.0,6.0,94,0.00,,,0.00,Weather View 32 v70,2013-02-14 14:54:00,
2013-02-14 07:59:00,23.0,21.0,30.21,ENE,67,0.0,6.0,92,0.00,,,0.00,Weather View 32 v70,2013-02-14 14:59:00,
2013-02-14 08:04:00,23.0,20.8,30.21,East,90,4.0,6.0,91,0.00,,,0.00,Weather View 32 v70,2013-02-14 15:04:00,
2013-02-14 08:09:00,24.0,21.0,30.21,SSE,157,3.0,6.0,88,0.00,,,0.00,Weather View 32 v70,2013-02-14 15:09:00,
2013-02-14 08:14:00,25.0,20.3,30.21,East,90,5.0,6.0,82,0.00,,,0.00,Weather View 32 v70,2013-02-14 15:14:00,
2013-02-14 08:19:00,25.0,19.7,30.21,East,90,6.0,9.0,80,0.00,,,0.00,Weather View 32 v70,2013-02-14 15:19:00,
2013-02-14 08:24:00,25.0,19.1,30.21,East,90,8.0,10.0,78,0.00,,,0.00,Weather View 32 v70,2013-02-14 15:24:00,
2013-02-14 08:29:00,25.0,19.1,30.21,East,90,6.0,10.0,78,0.00,,,0.00,Weather View 32 v70,2013-02-14 15:29:00,
2013-02-14 08:34:00,25.0,18.5,30.22,East,90,6.0,10.0,76,0.00,,,0.00,Weather View 32 v70,2013-02-14 15:34:00,
2013-02-14 08:39:00,25.0,18.2,30.22,East,90,6.0,10.0,75,0.00,,,0.00,Weather View 32 v70,2013-02-14 15:39:00,
2013-02-14 08:44:00,26.0,18.5,30.22,East,90,6.0,10.0,73,0.00,,,0.00,Weather View 32 v70,2013-02-14 15:44:00,
2013-02-14 08:49:00,26.0,18.2,30.22,East,90,2.0,10.0,72,0.00,,,0.00,Weather View 32 v70,2013-02-14 15:49:00,
2013-02-14 08:54:00,27.0,17.8,30.22,East,90,3.0,10.0,68,0.00,,,0.00,Weather View 32 v70,2013-02-14 15:54:00,
2013-02-14 08:59:00,27.0,17.5,30.22,NNE,22,2.0,10.0,67,0.00,,,0.00,Weather View 32 v70,2013-02-14 15:59:00,
2013-02-14 09:04:00,28.0,18.8,30.21,West,270,0.0,10.0,68,0.00,,,0.00,Weather View 32 v70,2013-02-14 16:04:00,
2013-02-14 09:09:00,29.0,19.1,30.21,NW,315,4.0,10.0,66,0.00,,,0.00,Weather View 32 v70,2013-02-14 16:09:00,
2013-02-14 09:14:00,29.0,18.0,30.21,West,270,5.0,10.0,63,0.00,,,0.00,Weather View 32 v70,2013-02-14 16:14:00,
2013-02-14 09:19:00,30.0,18.6,30.21,West,270,3.0,10.0,62,0.00,,,0.00,Weather View 32 v70,2013-02-14 16:19:00,
2013-02-14 09:24:00,31.0,18.7,30.21,SW,225,5.0,9.0,60,0.00,,,0.00,Weather View 32 v70,2013-02-14 16:24:00,
2013-02-14 09:29:00,32.0,18.1,30.21,SW,225,0.0,9.0,56,0.00,,,0.00,Weather View 32 v70,2013-02-14 16:29:00,
2013-02-14 09:34:00,33.0,18.2,30.20,WSW,247,4.0,8.0,54,0.00,,,0.00,Weather View 32 v70,2013-02-14 16:34:00,
2013-02-14 09:39:00,33.0,16.8,30.20,SW,225,7.0,9.0,51,0.00,,,0.00,Weather View 32 v70,2013-02-14 16:39:00,
2013-02-14 09:44:00,33.0,16.8,30.20,SW,225,7.0,9.0,51,0.00,,,0.00,Weather View 32 v70,2013-02-14 16:44:00,
2013-02-14 09:49:00,33.0,16.8,30.20,West,270,5.0,9.0,51,0.00,,,0.00,Weather View 32 v70,2013-02-14 16:49:00,
2013-02-14 09:54:00,33.0,16.8,30.20,NW,315,8.0,9.0,51,0.00,,,0.00,Weather View 32 v70,2013-02-14 16:54:00,
2013-02-14 09:59:00,33.0,18.6,30.20,NW,315,7.0,9.0,55,0.00,,,0.00,Weather View 32 v70,2013-02-14 16:59:00,
2013-02-14 10:04:00,33.0,19.0,30.20,SW,225,4.0,9.0,56,0.00,,,0.00,Weather View 32 v70,2013-02-14 17:04:00,
2013-02-14 10:09:00,34.0,19.1,30.20,West,270,1.0,10.0,54,0.00,,,0.00,Weather View 32 v70,2013-02-14 17:09:00,
2013-02-14 10:14:00,34.0,19.1,30.20,NW,315,7.0,10.0,54,0.00,,,0.00,Weather View 32 v70,2013-02-14 17:14:00,
2013-02-14 10:19:00,34.0,19.9,30.20,West,270,3.0,13.0,56,0.00,,,0.00,Weather View 32 v70,2013-02-14 17:19:00,
2013-02-14 10:24:00,34.0,20.4,30.20,SW,225,6.0,13.0,57,0.00,,,0.00,Weather View 32 v70,2013-02-14 17:24:00,
2013-02-14 10:29:00,34.0,19.9,30.20,West,270,8.0,13.0,56,0.00,,,0.00,Weather View 32 v70,2013-02-14 17:29:00,
2013-02-14 10:34:00,34.0,19.9,30.20,West,270,7.0,13.0,56,0.00,,,0.00,Weather View 32 v70,2013-02-14 17:34:00,
2013-02-14 10:39:00,34.0,19.1,30.20,WNW,292,7.0,13.0,54,0.00,,,0.00,Weather View 32 v70,2013-02-14 17:39:00,
2013-02-14 10:44:00,35.0,20.5,30.20,West,270,5.0,13.0,55,0.00,,,0.00,Weather View 32 v70,2013-02-14 17:44:00,
2013-02-14 10:49:00,35.0,20.0,30.20,North,360,6.0,13.0,54,0.00,,,0.00,Weather View 32 v70,2013-02-14 17:49:00,
2013-02-14 10:54:00,35.0,19.1,30.20,NW,315,5.0,13.0,52,0.00,,,0.00,Weather View 32 v70,2013-02-14 17:54:00,
2013-02-14 10:59:00,36.0,19.1,30.20,NNW,337,0.0,13.0,50,0.00,,,0.00,Weather View 32 v70,2013-02-14 17:59:00,
2013-02-14 11:04:00,36.0,19.1,30.19,West,270,1.0,13.0,50,0.00,,,0.00,Weather View 32 v70,2013-02-14 18:04:00,
2013-02-14 11:09:00,37.0,18.6,30.19,NNW,337,6.0,13.0,47,0.00,,,0.00,Weather View 32 v70,2013-02-14 18:09:00,
2013-02-14 11:14:00,38.0,19.0,30.18,WSW,247,4.0,13.0,46,0.00,,,0.00,Weather View 32 v70,2013-02-14 18:14:00,
2013-02-14 11:19:00,39.0,18.9,30.18,SW,225,7.0,12.0,44,0.00,,,0.00,Weather View 32 v70,2013-02-14 18:19:00,
2013-02-14 11:24:00,39.0,17.8,30.18,NW,315,4.0,12.0,42,0.00,,,0.00,Weather View 32 v70,2013-02-14 18:24:00,
2013-02-14 11:29:00,40.0,17.6,30.18,WSW,247,9.0,15.0,40,0.00,,,0.00,Weather View 32 v70,2013-02-14 18:29:00,
2013-02-14 11:34:00,41.0,17.9,30.17,West,270,10.0,18.0,39,0.00,,,0.00,Weather View 32 v70,2013-02-14 18:34:00,
2013-02-14 11:39:00,41.0,16.7,30.17,West,270,8.0,19.0,37,0.00,,,0.00,Weather View 32 v70,2013-02-14 18:39:00,
2013-02-14 11:44:00,41.0,16.7,30.16,West,270,10.0,19.0,37,0.00,,,0.00,Weather View 32 v70,2013-02-14 18:44:00,
2013-02-14 11:49:00,42.0,16.3,30.16,WSW,247,19.0,24.0,35,0.00,,,0.00,Weather View 32 v70,2013-02-14 18:49:00,
2013-02-14 11:54:00,42.0,15.6,30.15,WNW,292,10.0,25.0,34,0.00,,,0.00,Weather View 32 v70,2013-02-14 18:54:00,
2013-02-14 11:59:00,41.0,16.1,30.15,NW,315,19.0,25.0,36,0.00,,,0.00,Weather View 32 v70,2013-02-14 18:59:00,
2013-02-14 12:04:00,42.0,17.6,30.16,West,270,12.0,25.0,37,0.00,,,0.00,Weather View 32 v70,2013-02-14 19:04:00,
2013-02-14 12:09:00,42.0,17.6,30.16,NW,315,8.0,25.0,37,0.00,,,0.00,Weather View 32 v70,2013-02-14 19:09:00,
2013-02-14 12:14:00,42.0,16.9,30.15,West,270,5.0,25.0,36,0.00,,,0.00,Weather View 32 v70,2013-02-14 19:14:00,
2013-02-14 12:19:00,42.0,17.6,30.15,West,270,14.0,25.0,37,0.00,,,0.00,Weather View 32 v70,2013-02-14 19:19:00,
2013-02-14 12:24:00,42.0,18.8,30.14,West,270,10.0,25.0,39,0.00,,,0.00,Weather View 32 v70,2013-02-14 19:24:00,
2013-02-14 12:29:00,42.0,16.9,30.14,WNW,292,12.0,25.0,36,0.00,,,0.00,Weather View 32 v70,2013-02-14 19:29:00,
2013-02-14 12:34:00,42.0,17.6,30.15,West,270,9.0,25.0,37,0.00,,,0.00,Weather View 32 v70,2013-02-14 19:34:00,
2013-02-14 12:39:00,42.0,18.2,30.15,NW,315,15.0,25.0,38,0.00,,,0.00,Weather View 32 v70,2013-02-14 19:39:00,
2013-02-14 12:44:00,42.0,18.2,30.14,NW,315,14.0,25.0,38,0.00,,,0.00,Weather View 32 v70,2013-02-14 19:44:00,
2013-02-14 12:49:00,42.0,18.2,30.14,NW,315,14.0,26.0,38,0.00,,,0.00,Weather View 32 v70,2013-02-14 19:49:00,
2013-02-14 12:54:00,42.0,17.6,30.14,West,270,10.0,26.0,37,0.00,,,0.00,Weather View 32 v70,2013-02-14 19:54:00,
2013-02-14 12:59:00,42.0,18.2,30.14,West,270,12.0,26.0,38,0.00,,,0.00,Weather View 32 v70,2013-02-14 19:59:00,
2013-02-14 13:04:00,42.0,17.6,30.14,WNW,292,11.0,26.0,37,0.00,,,0.00,Weather View 32 v70,2013-02-14 20:04:00,
2013-02-14 13:09:00,42.0,17.6,30.14,West,270,16.0,29.0,37,0.00,,,0.00,Weather View 32 v70,2013-02-14 20:09:00,
2013-02-14 13:14:00,42.0,17.6,30.15,West,270,10.0,29.0,37,0.00,,,0.00,Weather View 32 v70,2013-02-14 20:14:00,
2013-02-14 13:19:00,43.0,19.1,30.15,WNW,292,16.0,29.0,38,0.00,,,0.00,Weather View 32 v70,2013-02-14 20:19:00,
2013-02-14 13:24:00,43.0,19.1,30.14,NW,315,10.0,29.0,38,0.00,,,0.00,Weather View 32 v70,2013-02-14 20:24:00,
2013-02-14 13:29:00,43.0,19.1,30.14,West,270,19.0,29.0,38,0.00,,,0.00,Weather View 32 v70,2013-02-14 20:29:00,
2013-02-14 13:34:00,43.0,19.1,30.14,NW,315,10.0,29.0,38,0.00,,,0.00,Weather View 32 v70,2013-02-14 20:34:00,
2013-02-14 13:39:00,43.0,18.5,30.14,NW,315,9.0,29.0,37,0.00,,,0.00,Weather View 32 v70,2013-02-14 20:39:00,
2013-02-14 13:44:00,43.0,18.5,30.13,West,270,17.0,29.0,37,0.00,,,0.00,Weather View 32 v70,2013-02-14 20:44:00,
2013-02-14 13:49:00,43.0,19.1,30.13,NW,315,7.0,29.0,38,0.00,,,0.00,Weather View 32 v70,2013-02-14 20:49:00,
2013-02-14 13:54:00,43.0,17.8,30.13,NW,315,8.0,29.0,36,0.00,,,0.00,Weather View 32 v70,2013-02-14 20:54:00,
2013-02-14 13:59:00,44.0,18.7,30.13,NNW,337,10.0,29.0,36,0.00,,,0.00,Weather View 32 v70,2013-02-14 20:59:00,
2013-02-14 14:04:00,44.0,16.7,30.13,West,270,10.0,29.0,33,0.00,,,0.00,Weather View 32 v70,2013-02-14 21:04:00,
2013-02-14 14:09:00,44.0,16.7,30.13,NW,315,10.0,27.0,33,0.00,,,0.00,Weather View 32 v70,2013-02-14 21:09:00,
2013-02-14 14:14:00,44.0,16.7,30.12,NW,315,8.0,25.0,33,0.00,,,0.00,Weather View 32 v70,2013-02-14 21:14:00,
2013-02-14 14:19:00,44.0,17.4,30.12,NW,315,13.0,25.0,34,0.00,,,0.00,Weather View 32 v70,2013-02-14 21:19:00,
2013-02-14 14:24:00,45.0,17.6,30.13,NW,315,10.0,25.0,33,0.00,,,0.00,Weather View 32 v70,2013-02-14 21:24:00,
2013-02-14 14:29:00,45.0,17.6,30.13,West,270,11.0,25.0,33,0.00,,,0.00,Weather View 32 v70,2013-02-14 21:29:00,
2013-02-14 14:34:00,45.0,17.6,30.12,NW,315,8.0,25.0,33,0.00,,,0.00,Weather View 32 v70,2013-02-14 21:34:00,
2013-02-14 14:39:00,45.0,17.6,30.12,West,270,10.0,25.0,33,0.00,,,0.00,Weather View 32 v70,2013-02-14 21:39:00,
2013-02-14 14:44:00,45.0,16.1,30.12,West,270,16.0,23.0,31,0.00,,,0.00,Weather View 32 v70,2013-02-14 21:44:00,
2013-02-14 14:49:00,45.0,15.4,30.12,NW,315,10.0,22.0,30,0.00,,,0.00,Weather View 32 v70,2013-02-14 21:49:00,
2013-02-14 14:54:00,46.0,16.3,30.12,West,270,9.0,22.0,30,0.00,,,0.00,Weather View 32 v70,2013-02-14 21:54:00,
2013-02-14 14:59:00,46.0,15.5,30.12,WNW,292,10.0,22.0,29,0.00,,,0.00,Weather View 32 v70,2013-02-14 21:59:00,
2013-02-14 15:04:00,46.0,16.3,30.12,NW,315,10.0,22.0,30,0.00,,,0.00,Weather View 32 v70,2013-02-14 22:04:00,
2013-02-14 15:09:00,46.0,15.5,30.12,NW,315,14.0,22.0,29,0.00,,,0.00,Weather View 32 v70,2013-02-14 22:09:00,
2013-02-14 15:14:00,46.0,17.0,30.12,NW,315,7.0,22.0,31,0.00,,,0.00,Weather View 32 v70,2013-02-14 22:14:00,
2013-02-14 15:19:00,46.0,16.3,30.12,NW,315,12.0,22.0,30,0.00,,,0.00,Weather View 32 v70,2013-02-14 22:19:00,
2013-02-14 15:24:00,46.0,14.7,30.12,West,270,9.0,22.0,28,0.00,,,0.00,Weather View 32 v70,2013-02-14 22:24:00,
2013-02-14 15:29:00,46.0,16.3,30.12,WNW,292,7.0,22.0,30,0.00,,,0.00,Weather View 32 v70,2013-02-14 22:29:00,
2013-02-14 15:34:00,46.0,15.5,30.13,NW,315,14.0,22.0,29,0.00,,,0.00,Weather View 32 v70,2013-02-14 22:34:00,
2013-02-14 15:39:00,46.0,16.3,30.13,West,270,8.0,22.0,30,0.00,,,0.00,Weather View 32 v70,2013-02-14 22:39:00,
2013-02-14 15:44:00,46.0,17.0,30.13,WSW,247,8.0,22.0,31,0.00,,,0.00,Weather View 32 v70,2013-02-14 22:44:00,
2013-02-14 15:49:00,46.0,16.3,30.13,West,270,12.0,22.0,30,0.00,,,0.00,Weather View 32 v70,2013-02-14 22:49:00,
2013-02-14 15:54:00,46.0,16.3,30.13,WNW,292,8.0,22.0,30,0.00,,,0.00,Weather View 32 v70,2013-02-14 22:54:00,
2013-02-14 15:59:00,46.0,16.3,30.13,West,270,10.0,22.0,30,0.00,,,0.00,Weather View 32 v70,2013-02-14 22:59:00,
2013-02-14 16:04:00,46.0,16.3,30.13,WNW,292,10.0,22.0,30,0.00,,,0.00,Weather View 32 v70,2013-02-14 23:04:00,
2013-02-14 16:09:00,46.0,16.3,30.13,West,270,6.0,22.0,30,0.00,,,0.00,Weather View 32 v70,2013-02-14 23:09:00,
2013-02-14 16:14:00,46.0,16.3,30.13,NW,315,9.0,22.0,30,0.00,,,0.00,Weather View 32 v70,2013-02-14 23:14:00,
2013-02-14 16:19:00,45.0,16.1,30.13,NW,315,10.0,22.0,31,0.00,,,0.00,Weather View 32 v70,2013-02-14 23:19:00,
2013-02-14 16:24:00,45.0,16.1,30.13,WNW,292,9.0,22.0,31,0.00,,,0.00,Weather View 32 v70,2013-02-14 23:24:00,
2013-02-14 16:29:00,45.0,16.1,30.13,West,270,9.0,22.0,31,0.00,,,0.00,Weather View 32 v70,2013-02-14 23:29:00,
2013-02-14 16:34:00,45.0,16.9,30.13,NW,315,5.0,22.0,32,0.00,,,0.00,Weather View 32 v70,2013-02-14 23:34:00,
2013-02-14 16:39:00,45.0,17.6,30.13,NW,315,7.0,21.0,33,0.00,,,0.00,Weather View 32 v70,2013-02-14 23:39:00,
2013-02-14 16:44:00,45.0,16.9,30.14,NW,315,15.0,21.0,32,0.00,,,0.00,Weather View 32 v70,2013-02-14 23:44:00,
2013-02-14 16:49:00,44.0,16.0,30.14,NW,315,7.0,21.0,32,0.00,,,0.00,Weather View 32 v70,2013-02-14 23:49:00,
2013-02-14 16:54:00,44.0,16.0,30.14,WNW,292,9.0,19.0,32,0.00,,,0.00,Weather View 32 v70,2013-02-14 23:54:00,
2013-02-14 16:59:00,44.0,16.7,30.14,West,270,7.0,19.0,33,0.00,,,0.00,Weather View 32 v70,2013-02-14 23:59:00,
2013-02-14 17:04:00,44.0,17.4,30.14,NW,315,6.0,19.0,34,0.00,,,0.00,Weather View 32 v70,2013-02-15 00:04:00,
2013-02-14 17:09:00,44.0,17.4,30.14,WNW,292,9.0,19.0,34,0.00,,,0.00,Weather View 32 v70,2013-02-15 00:09:00,
2013-02-14 17:14:00,43.0,17.2,30.15,WNW,292,7.0,19.0,35,0.00,,,0.00,Weather View 32 v70,2013-02-15 00:14:00,
2013-02-14 17:19:00,43.0,17.2,30.15,WNW,292,7.0,19.0,35,0.00,,,0.00,Weather View 32 v70,2013-02-15 00:19:00,
2013-02-14 17:24:00,43.0,17.2,30.15,WNW,292,13.0,19.0,35,0.00,,,0.00,Weather View 32 v70,2013-02-15 00:24:00,
2013-02-14 17:29:00,42.0,15.6,30.15,West,270,7.0,19.0,34,0.00,,,0.00,Weather View 32 v70,2013-02-15 00:29:00,
2013-02-14 17:34:00,42.0,16.3,30.15,WNW,292,6.0,19.0,35,0.00,,,0.00,Weather View 32 v70,2013-02-15 00:34:00,
2013-02-14 17:39:00,41.0,16.1,30.15,WNW,292,6.0,19.0,36,0.00,,,0.00,Weather View 32 v70,2013-02-15 00:39:00,
2013-02-14 17:44:00,41.0,16.1,30.15,WNW,292,12.0,18.0,36,0.00,,,0.00,Weather View 32 v70,2013-02-15 00:44:00,
2013-02-14 17:49:00,40.0,15.2,30.15,West,270,8.0,18.0,36,0.00,,,0.00,Weather View 32 v70,2013-02-15 00:49:00,
2013-02-14 17:54:00,40.0,15.8,30.16,West,270,8.0,18.0,37,0.00,,,0.00,Weather View 32 v70,2013-02-15 00:54:00,
2013-02-14 17:59:00,40.0,15.8,30.16,West,270,5.0,18.0,37,0.00,,,0.00,Weather View 32 v70,2013-02-15 00:59:00,
2013-02-14 18:04:00,39.0,15.5,30.17,West,270,7.0,18.0,38,0.00,,,0.00,Weather View 32 v70,2013-02-15 01:04:00,
2013-02-14 18:09:00,39.0,16.1,30.17,West,270,6.0,18.0,39,0.00,,,0.00,Weather View 32 v70,2013-02-15 01:09:00,
2013-02-14 18:14:00,38.0,15.2,30.17,WNW,292,5.0,18.0,39,0.00,,,0.00,Weather View 32 v70,2013-02-15 01:14:00,
2013-02-14 18:19:00,38.0,16.4,30.17,NW,315,8.0,18.0,41,0.00,,,0.00,Weather View 32 v70,2013-02-15 01:19:00,
2013-02-14 18:24:00,38.0,16.4,30.18,WSW,247,5.0,18.0,41,0.00,,,0.00,Weather View 32 v70,2013-02-15 01:24:00,
2013-02-14 18:29:00,37.0,15.5,30.18,West,270,10.0,18.0,41,0.00,,,0.00,Weather View 32 v70,2013-02-15 01:29:00,
2013-02-14 18:34:00,37.0,16.0,30.18,NW,315,7.0,18.0,42,0.00,,,0.00,Weather View 32 v70,2013-02-15 01:34:00,
2013-02-14 18:39:00,37.0,16.0,30.18,NW,315,5.0,18.0,42,0.00,,,0.00,Weather View 32 v70,2013-02-15 01:39:00,
2013-02-14 18:44:00,37.0,16.0,30.19,NW,315,6.0,18.0,42,0.00,,,0.00,Weather View 32 v70,2013-02-15 01:44:00,
2013-02-14 18:49:00,36.0,15.1,30.19,WNW,292,5.0,15.0,42,0.00,,,0.00,Weather View 32 v70,2013-02-15 01:49:00,
2013-02-14 18:54:00,36.0,15.1,30.19,West,270,8.0,14.0,42,0.00,,,0.00,Weather View 32 v70,2013-02-15 01:54:00,
2013-02-14 18:59:00,36.0,15.6,30.19,NW,315,6.0,14.0,43,0.00,,,0.00,Weather View 32 v70,2013-02-15 01:59:00,
2013-02-14 19:04:00,36.0,15.6,30.20,NW,315,5.0,14.0,43,0.00,,,0.00,Weather View 32 v70,2013-02-15 02:04:00,
2013-02-14 19:09:00,36.0,15.6,30.20,NW,315,12.0,15.0,43,0.00,,,0.00,Weather View 32 v70,2013-02-15 02:09:00,
2013-02-14 19:14:00,36.0,15.6,30.20,WNW,292,8.0,15.0,43,0.00,,,0.00,Weather View 32 v70,2013-02-15 02:14:00,
2013-02-14 19:19:00,36.0,16.2,30.20,NW,315,5.0,15.0,44,0.00,,,0.00,Weather View 32 v70,2013-02-15 02:19:00,
2013-02-14 19:24:00,36.0,16.2,30.20,West,270,6.0,15.0,44,0.00,,,0.00,Weather View 32 v70,2013-02-15 02:24:00,
2013-02-14 19:29:00,35.0,15.8,30.20,West,270,5.0,15.0,45,0.00,,,0.00,Weather View 32 v70,2013-02-15 02:29:00,
2013-02-14 19:34:00,35.0,16.3,30.20,West,270,4.0,15.0,46,0.00,,,0.00,Weather View 32 v70,2013-02-15 02:34:00,
2013-02-14 19:39:00,35.0,16.8,30.20,West,270,3.0,15.0,47,0.00,,,0.00,Weather View 32 v70,2013-02-15 02:39:00,
2013-02-14 19:44:00,34.0,16.8,30.20,West,270,7.0,15.0,49,0.00,,,0.00,Weather View 32 v70,2013-02-15 02:44:00,
2013-02-14 19:49:00,34.0,16.8,30.20,WNW,292,4.0,15.0,49,0.00,,,0.00,Weather View 32 v70,2013-02-15 02:49:00,
2013-02-14 19:54:00,34.0,17.3,30.20,West,270,6.0,15.0,50,0.00,,,0.00,Weather View 32 v70,2013-02-15 02:54:00,
2013-02-14 19:59:00,33.0,16.4,30.20,West,270,5.0,15.0,50,0.00,,,0.00,Weather View 32 v70,2013-02-15 02:59:00,
2013-02-14 20:04:00,33.0,16.4,30.20,West,270,3.0,15.0,50,0.00,,,0.00,Weather View 32 v70,2013-02-15 03:04:00,
2013-02-14 20:09:00,33.0,16.8,30.20,NW,315,2.0,15.0,51,0.00,,,0.00,Weather View 32 v70,2013-02-15 03:09:00,
2013-02-14 20:14:00,33.0,16.8,30.21,WSW,247,3.0,15.0,51,0.00,,,0.00,Weather View 32 v70,2013-02-15 03:14:00,
2013-02-14 20:19:00,32.0,17.2,30.21,West,270,4.0,10.0,54,0.00,,,0.00,Weather View 32 v70,2013-02-15 03:19:00,
2013-02-14 20:24:00,32.0,17.6,30.21,West,270,4.0,9.0,55,0.00,,,0.00,Weather View 32 v70,2013-02-15 03:24:00,
2013-02-14 20:29:00,32.0,18.1,30.21,WSW,247,4.0,9.0,56,0.00,,,0.00,Weather View 32 v70,2013-02-15 03:29:00,
2013-02-14 20:34:00,32.0,18.1,30.21,West,270,4.0,9.0,56,0.00,,,0.00,Weather View 32 v70,2013-02-15 03:34:00,
2013-02-14 20:39:00,31.0,17.5,30.21,WSW,247,3.0,9.0,57,0.00,,,0.00,Weather View 32 v70,2013-02-15 03:39:00,
2013-02-14 20:44:00,31.0,17.9,30.22,SW,225,3.0,9.0,58,0.00,,,0.00,Weather View 32 v70,2013-02-15 03:44:00,
2013-02-14 20:49:00,31.0,17.9,30.22,SW,225,4.0,9.0,58,0.00,,,0.00,Weather View 32 v70,2013-02-15 03:49:00,
2013-02-14 20:54:00,31.0,18.3,30.22,SW,225,4.0,8.0,59,0.00,,,0.00,Weather View 32 v70,2013-02-15 03:54:00,
2013-02-14 20:59:00,31.0,18.7,30.22,WSW,247,5.0,8.0,60,0.00,,,0.00,Weather View 32 v70,2013-02-15 03:59:00,
2013-02-14 21:04:00,31.0,19.1,30.22,WSW,247,0.0,8.0,61,0.00,,,0.00,Weather View 32 v70,2013-02-15 04:04:00,
2013-02-14 21:09:00,31.0,19.5,30.22,West,270,7.0,10.0,62,0.00,,,0.00,Weather View 32 v70,2013-02-15 04:09:00,
2013-02-14 21:14:00,31.0,19.1,30.23,West,270,4.0,10.0,61,0.00,,,0.00,Weather View 32 v70,2013-02-15 04:14:00,
2013-02-14 21:19:00,31.0,19.1,30.23,West,270,6.0,10.0,61,0.00,,,0.00,Weather View 32 v70,2013-02-15 04:19:00,
2013-02-14 21:24:00,31.0,18.7,30.23,West,270,4.0,10.0,60,0.00,,,0.00,Weather View 32 v70,2013-02-15 04:24:00,
2013-02-14 21:29:00,31.0,18.7,30.23,West,270,4.0,10.0,60,0.00,,,0.00,Weather View 32 v70,2013-02-15 04:29:00,
2013-02-14 21:34:00,31.0,19.1,30.23,SW,225,4.0,10.0,61,0.00,,,0.00,Weather View 32 v70,2013-02-15 04:34:00,
2013-02-14 21:39:00,30.0,18.9,30.23,WSW,247,5.0,10.0,63,0.00,,,0.00,Weather View 32 v70,2013-02-15 04:39:00,
2013-02-14 21:44:00,30.0,18.6,30.24,WSW,247,0.0,10.0,62,0.00,,,0.00,Weather View 32 v70,2013-02-15 04:44:00,
2013-02-14 21:49:00,30.0,18.9,30.24,WNW,292,4.0,10.0,63,0.00,,,0.00,Weather View 32 v70,2013-02-15 04:49:00,
2013-02-14 21:54:00,30.0,18.6,30.23,West,270,4.0,10.0,62,0.00,,,0.00,Weather View 32 v70,2013-02-15 04:54:00,
2013-02-14 21:59:00,30.0,18.6,30.23,WNW,292,3.0,10.0,62,0.00,,,0.00,Weather View 32 v70,2013-02-15 04:59:00,
2013-02-14 22:00:00,30.0,18.6,30.23,WSW,247,3.0,10.0,62,0.00,,,0.00,Weather View 32 v70,2013-02-15 05:00:00,
2013-02-14 22:05:00,30.0,18.6,30.23,NW,315,9.0,10.0,62,0.00,,,0.00,Weather View 32 v70,2013-02-15 05:05:00,
2013-02-14 22:10:00,30.0,18.6,30.23,East,90,2.0,10.0,62,0.00,,,0.00,Weather View 32 v70,2013-02-15 05:10:00,
2013-02-14 22:15:00,30.0,18.6,30.24,East,90,2.0,10.0,62,0.00,,,0.00,Weather View 32 v70,2013-02-15 05:15:00,
2013-02-14 22:20:00,30.0,18.9,30.24,SW,225,2.0,10.0,63,0.00,,,0.00,Weather View 32 v70,2013-02-15 05:20:00,
2013-02-14 22:25:00,30.0,19.3,30.24,SW,225,4.0,10.0,64,0.00,,,0.00,Weather View 32 v70,2013-02-15 05:25:00,
2013-02-14 22:30:00,30.0,19.7,30.24,WSW,247,4.0,10.0,65,0.00,,,0.00,Weather View 32 v70,2013-02-15 05:30:00,
2013-02-14 22:35:00,29.0,18.7,30.24,WSW,247,3.0,10.0,65,0.00,,,0.00,Weather View 32 v70,2013-02-15 05:35:00,
2013-02-14 22:40:00,29.0,18.7,30.24,WSW,247,2.0,10.0,65,0.00,,,0.00,Weather View 32 v70,2013-02-15 05:40:00,
2013-02-14 22:45:00,29.0,18.7,30.24,WSW,247,3.0,10.0,65,0.00,,,0.00,Weather View 32 v70,2013-02-15 05:45:00,
2013-02-14 22:50:00,29.0,18.7,30.24,West,270,3.0,10.0,65,0.00,,,0.00,Weather View 32 v70,2013-02-15 05:50:00,
2013-02-14 22:55:00,28.0,18.5,30.24,West,270,5.0,10.0,67,0.00,,,0.00,Weather View 32 v70,2013-02-15 05:55:00,
2013-02-14 23:00:00,28.0,18.5,30.24,WSW,247,2.0,10.0,67,0.00,,,0.00,Weather View 32 v70,2013-02-15 06:00:00,
2013-02-14 23:05:00,28.0,18.8,30.25,East,90,4.0,10.0,68,0.00,,,0.00,Weather View 32 v70,2013-02-15 06:05:00,
2013-02-14 23:10:00,28.0,18.8,30.25,ENE,67,4.0,6.0,68,0.00,,,0.00,Weather View 32 v70,2013-02-15 06:10:00,
2013-02-14 23:15:00,28.0,18.8,30.26,ENE,67,1.0,6.0,68,0.00,,,0.00,Weather View 32 v70,2013-02-15 06:15:00,
2013-02-14 23:20:00,27.0,18.2,30.26,ENE,67,0.0,6.0,69,0.00,,,0.00,Weather View 32 v70,2013-02-15 06:20:00,
2013-02-14 23:25:00,27.0,18.2,30.26,ENE,67,0.0,6.0,69,0.00,,,0.00,Weather View 32 v70,2013-02-15 06:25:00,
2013-02-14 23:30:00,27.0,17.8,30.26,North,360,3.0,6.0,68,0.00,,,0.00,Weather View 32 v70,2013-02-15 06:30:00,
2013-02-14 23:35:00,27.0,17.8,30.26,WSW,247,3.0,6.0,68,0.00,,,0.00,Weather View 32 v70,2013-02-15 06:35:00,
2013-02-14 23:40:00,26.0,17.6,30.26,WSW,247,0.0,6.0,70,0.00,,,0.00,Weather View 32 v70,2013-02-15 06:40:00,
2013-02-14 23:45:00,26.0,18.5,30.26,NW,315,3.0,6.0,73,0.00,,,0.00,Weather View 32 v70,2013-02-15 06:45:00,
2013-02-14 23:50:00,26.0,17.9,30.26,NW,315,4.0,6.0,71,0.00,,,0.00,Weather View 32 v70,2013-02-15 06:50:00,
2013-02-14 23:55:00,26.0,17.6,30.26,NW,315,1.0,6.0,70,0.00,,,0.00,Weather View 32 v70,2013-02-15 06:55:00,